User: anonymous   Login
Location: Unspecified
(0.0000°N, 0.0000°E)
Time: 10:06:32
(UTC+00:00)
Language:

TOPSAT - Orbit

View from above orbital plane
View from above orbital plane
View from above satellite
View from above satellite

Ground track
Ground track

The orbit data is extracted from the following two-line orbital elements,

1 28891U 05043B   18197.80630205  .00000007  00000-0  10621-4 0  9991
2 28891  97.9418 341.1077 0016742 359.6122   0.5059 14.61337095677984
Epoch (UTC): 16 July 2018 19:21:04
Eccentricity: 0.0016742
inclination: 97.9418°
perigee height: 677 km
apogee height: 700 km
right ascension of ascending node: 341.1077°
argument of perigee: 359.6122°
revolutions per day: 14.61337095
mean anomaly at epoch: 0.5059°
orbit number at epoch: 67798

The dashed part of the orbit path shows where the satellite is in the earth's shadow,  

DLR